Location: Ida Center
(41.8662°N, 83.5713°W)
Time: 03:16:38
(UTC+00:00)

SMAP - Pass Details

Date: 17 November 2019
Orbit: 682 x 683 km, 98.1° (Epoch: 10 December)

Event Time Altitude Azimuth Distance (km) Brightness Sun altitude
Rises 22:42:49 0° 157° (SSE) 3,031 6.4 -6.1°
Reaches altitude 10° 22:45:04 10° 154° (SSE) 2,120 5.5 -6.5°
Maximum altitude 22:49:38 64° 74° (ENE) 761 3.1 -7.3°
Drops below altitude 10° 22:54:15 10° 353° (N) 2,135 5.5 -8.1°
Sets 22:56:31 0° 351° (N) 3,055 6.3 -8.5°
